timestamp,surface_pressure_avg,surface_temp_avg,battery_voltage,lat,long
2017-10-22 00:00:00+00:00,375.5129,10.9,12.97,47.84626,-54.09684
2017-10-22 00:10:00+00:00,374.8279,10.9,12.89,47.84626,-54.09684
2017-10-22 00:20:00+00:00,374.8962,10.9,12.97,47.84626,-54.09684
2017-10-22 00:30:00+00:00,376.1013,10.9,12.97,47.84626,-54.09684
2017-10-22 00:40:00+00:00,378.4346,10.9,12.97,47.84626,-54.09684
2017-10-22 00:50:00+00:00,378.6462,10.88,13.05,47.84626,-54.09684
2017-10-22 01:00:00+00:00,377.7712,10.9,12.97,47.84626,-54.09684
2017-10-22 01:10:00+00:00,377.4012,10.9,12.89,47.84626,-54.09684
2017-10-22 01:20:00+00:00,375.4162,10.9,12.97,47.84626,-54.09684
2017-10-22 01:30:00+00:00,374.2362,10.9,12.97,47.84626,-54.09684
2017-10-22 01:40:00+00:00,373.3613,10.9,12.97,47.84626,-54.09684
2017-10-22 01:50:00+00:00,369.8879,10.9,12.97,47.84626,-54.09684
2017-10-22 02:00:00+00:00,364.7863,10.9,12.97,47.84626,-54.09684
2017-10-22 02:10:00+00:00,361.188,10.87,12.89,47.84626,-54.09684
2017-10-22 02:20:00+00:00,359.5797,10.8,12.97,47.84626,-54.09684
2017-10-22 02:30:00+00:00,356.8896,10.8,12.97,47.84626,-54.09684
2017-10-22 02:40:00+00:00,351.4113,10.8,12.97,47.84626,-54.09684
2017-10-22 02:50:00+00:00,347.5179,10.8,12.97,47.84626,-54.09684
2017-10-22 03:00:00+00:00,344.2963,10.8,12.89,47.84626,-54.09684
2017-10-22 03:10:00+00:00,336.853,10.8,12.81,47.84626,-54.09684
2017-10-22 03:20:00+00:00,327.9396,10.78,12.89,47.84626,-54.09684
2017-10-22 03:30:00+00:00,320.8781,10.74,12.97,47.84626,-54.09684
2017-10-22 03:40:00+00:00,310.1298,10.74,12.97,47.84626,-54.09684
2017-10-22 03:50:00+00:00,298.9513,10.77,12.97,47.84626,-54.09684
2017-10-22 04:00:00+00:00,292.2963,10.76,12.89,47.84626,-54.09684
2017-10-22 04:10:00+00:00,287.6381,10.74,12.81,47.84626,-54.09684
2017-10-22 04:20:00+00:00,278.8113,10.7,12.89,47.84626,-54.09684
2017-10-22 04:30:00+00:00,269.7147,10.7,12.89,47.84626,-54.09684
2017-10-22 04:40:00+00:00,265.4897,10.7,12.89,47.84626,-54.09684
2017-10-22 04:50:00+00:00,260.0781,10.7,12.89,47.84626,-54.09684
2017-10-22 05:00:00+00:00,251.1531,10.7,12.89,47.84626,-54.09684
2017-10-22 05:10:00+00:00,244.2631,10.7,12.81,47.84626,-54.09684
2017-10-22 05:20:00+00:00,240.8264,10.7,12.89,47.84626,-54.09684
2017-10-22 05:30:00+00:00,234.2364,10.7,12.89,47.84626,-54.09684
2017-10-22 05:40:00+00:00,226.0464,10.65,12.89,47.84626,-54.09684
2017-10-22 05:50:00+00:00,222.3265,10.68,12.89,47.84626,-54.09684
2017-10-22 06:00:00+00:00,219.3798,10.66,12.81,47.84626,-54.09684
2017-10-22 06:10:00+00:00,213.4798,10.62,12.73,47.84626,-54.09684
2017-10-22 06:20:00+00:00,210.9915,10.6,12.81,47.84626,-54.09684
2017-10-22 06:30:00+00:00,212.9664,10.6,12.89,47.84626,-54.09684
2017-10-22 06:40:00+00:00,212.3482,10.6,12.89,47.84626,-54.09684
2017-10-22 06:50:00+00:00,210.2664,10.6,12.89,47.84626,-54.09684
2017-10-22 07:00:00+00:00,212.3498,10.6,12.81,47.84626,-54.09684
2017-10-22 07:10:00+00:00,216.5681,10.59,12.73,47.84626,-54.09684
2017-10-22 07:20:00+00:00,219.4948,10.58,12.81,47.84626,-54.09684
2017-10-22 07:30:00+00:00,222.9981,10.54,12.81,47.84626,-54.09684
2017-10-22 07:40:00+00:00,227.5098,10.5,12.89,47.84626,-54.09684
2017-10-22 07:50:00+00:00,231.7631,10.5,12.89,47.84626,-54.09684
2017-10-22 08:00:00+00:00,237.9648,10.5,12.81,47.84626,-54.09684
2017-10-22 08:10:00+00:00,243.9131,10.5,12.73,47.84626,-54.09684
2017-10-22 08:20:00+00:00,247.5281,10.49,12.81,47.84626,-54.09684
2017-10-22 08:30:00+00:00,252.8031,10.47,12.81,47.84626,-54.09684
2017-10-22 08:40:00+00:00,260.7298,10.4,12.81,47.84626,-54.09684
2017-10-22 08:50:00+00:00,266.5931,10.4,12.81,47.84626,-54.09684
2017-10-22 09:00:00+00:00,268.8665,10.4,12.81,47.84626,-54.09684
2017-10-22 09:10:00+00:00,271.1798,10.4,12.73,47.84626,-54.09684
2017-10-22 09:20:00+00:00,275.4164,10.4,12.81,47.84626,-54.09684
2017-10-22 09:30:00+00:00,277.7814,10.3,12.81,47.84626,-54.09684
2017-10-22 09:40:00+00:00,278.3981,10.3,12.81,47.84626,-54.09684
2017-10-22 09:50:00+00:00,283.5564,10.3,12.81,47.84626,-54.09684
2017-10-22 10:00:00+00:00,289.8313,10.3,12.81,47.84626,-54.09684
2017-10-22 10:10:00+00:00,291.6364,10.3,12.73,47.84626,-54.09684
2017-10-22 10:20:00+00:00,295.0663,10.37,12.89,47.84626,-54.09684
2017-10-22 10:30:00+00:00,303.4347,10.37,13.21,47.84626,-54.09684
2017-10-22 10:40:00+00:00,309.4847,10.3,13.6,47.84626,-54.09684
2017-10-22 10:50:00+00:00,313.2714,10.3,14.08,47.84626,-54.09684
2017-10-22 11:00:00+00:00,322.2012,10.3,13.76,47.84626,-54.09684
2017-10-22 11:10:00+00:00,331.443,10.3,13.68,47.84626,-54.09684
2017-10-22 11:20:00+00:00,336.5379,10.3,13.6,47.84626,-54.09684
2017-10-22 11:30:00+00:00,342.3196,10.3,13.6,47.84626,-54.09684
2017-10-22 11:40:00+00:00,351.7913,10.29,13.53,47.84626,-54.09684
2017-10-22 11:50:00+00:00,357.9229,10.3,13.53,47.84626,-54.09684
2017-10-22 12:00:00+00:00,362.3845,10.3,13.44,47.84626,-54.09684
2017-10-22 12:10:00+00:00,367.8962,10.3,13.53,47.84626,-54.09684
2017-10-22 12:20:00+00:00,371.9979,10.3,13.53,47.84626,-54.09684
2017-10-22 12:30:00+00:00,372.3113,10.3,13.53,47.84626,-54.09684
2017-10-22 12:40:00+00:00,373.7996,10.2,13.44,47.84626,-54.09684
2017-10-22 12:50:00+00:00,378.5547,10.15,13.6,47.84626,-54.09684
2017-10-22 13:00:00+00:00,379.6379,10.17,13.53,47.84626,-54.09684
2017-10-22 13:10:00+00:00,376.4696,10.18,13.53,47.84626,-54.09684
2017-10-22 13:20:00+00:00,376.5562,10.2,13.53,47.84626,-54.09684
2017-10-22 13:30:00+00:00,375.863,10.2,13.6,47.84626,-54.09684
2017-10-22 13:40:00+00:00,371.4229,10.2,13.6,47.84626,-54.09684
2017-10-22 13:50:00+00:00,369.3563,10.2,13.44,47.84626,-54.09684
2017-10-22 14:00:00+00:00,369.4429,10.2,13.68,47.84626,-54.09684
2017-10-22 14:10:00+00:00,366.358,10.21,14.0,47.84626,-54.09684
2017-10-22 14:20:00+00:00,361.3646,10.2,13.44,47.84626,-54.09684
2017-10-22 14:30:00+00:00,357.813,10.23,13.68,47.84626,-54.09684
2017-10-22 14:40:00+00:00,353.9062,10.28,13.44,47.84626,-54.09684
2017-10-22 14:50:00+00:00,348.2145,10.28,13.44,47.84626,-54.09684
2017-10-22 15:00:00+00:00,343.1263,10.3,13.44,47.84626,-54.09684
2017-10-22 15:10:00+00:00,337.808,10.3,13.53,47.84626,-54.09684
2017-10-22 15:20:00+00:00,330.7079,10.3,13.44,47.84626,-54.09684
2017-10-22 15:30:00+00:00,325.5945,10.3,13.44,47.84626,-54.09684
2017-10-22 15:40:00+00:00,316.2546,10.3,13.6,47.84626,-54.09684
2017-10-22 15:50:00+00:00,304.3797,10.3,13.6,47.84626,-54.09684
2017-10-22 16:00:00+00:00,296.9947,10.35,13.68,47.84626,-54.09684
2017-10-22 16:10:00+00:00,293.0497,10.37,13.6,47.84626,-54.09684
2017-10-22 16:20:00+00:00,283.7097,10.3,13.44,47.84626,-54.09684
2017-10-22 16:30:00+00:00,272.6814,10.3,13.84,47.84626,-54.09684
2017-10-22 16:40:00+00:00,266.0214,10.32,14.24,47.84626,-54.09684
2017-10-22 16:50:00+00:00,258.5631,10.39,13.68,47.84626,-54.09684
2017-10-22 17:00:00+00:00,247.1797,10.36,13.44,47.84626,-54.09684
2017-10-22 17:10:00+00:00,237.7581,10.35,13.44,47.84626,-54.09684
2017-10-22 17:20:00+00:00,229.7947,10.35,13.44,47.84626,-54.09684
2017-10-22 17:30:00+00:00,218.6998,10.36,13.68,47.84626,-54.09684
2017-10-22 17:40:00+00:00,209.7531,10.3,13.68,47.84626,-54.09684
2017-10-22 17:50:00+00:00,207.1448,10.3,13.53,47.84626,-54.09684
2017-10-22 18:00:00+00:00,201.6198,10.3,13.44,47.84626,-54.09684
2017-10-22 18:10:00+00:00,192.9764,10.29,13.37,47.84626,-54.09684
2017-10-22 18:20:00+00:00,189.2981,10.3,13.53,47.84626,-54.09684
2017-10-22 18:30:00+00:00,188.4615,10.3,13.44,47.84626,-54.09684
2017-10-22 18:40:00+00:00,184.3732,10.3,13.44,47.84626,-54.09684
2017-10-22 18:50:00+00:00,181.9164,10.3,13.44,47.84626,-54.09684
2017-10-22 19:00:00+00:00,182.8531,10.3,13.37,47.84626,-54.09684
2017-10-22 19:10:00+00:00,183.1148,10.3,13.21,47.84626,-54.09684
2017-10-22 19:20:00+00:00,182.9648,10.3,13.29,47.84626,-54.09684
2017-10-22 19:30:00+00:00,187.2231,10.3,13.29,47.84626,-54.09684
2017-10-22 19:40:00+00:00,192.7981,10.3,13.29,47.84626,-54.09684
2017-10-22 19:50:00+00:00,194.7098,10.29,13.21,47.84626,-54.09684
2017-10-22 20:00:00+00:00,196.6464,10.3,13.13,47.84626,-54.09684
2017-10-22 20:10:00+00:00,203.0365,10.3,13.05,47.84626,-54.09684
2017-10-22 20:20:00+00:00,209.9331,10.29,13.13,47.84626,-54.09684
2017-10-22 20:30:00+00:00,215.0747,10.2,13.13,47.84626,-54.09684
2017-10-22 20:40:00+00:00,219.8665,10.2,13.13,47.84626,-54.09684
2017-10-22 20:50:00+00:00,224.7315,10.2,13.13,47.84626,-54.09684
2017-10-22 21:00:00+00:00,229.3381,10.2,13.05,47.84626,-54.09684
2017-10-22 21:10:00+00:00,234.8097,10.1,12.97,47.84626,-54.09684
2017-10-22 21:20:00+00:00,240.3281,10.13,13.05,47.84626,-54.09684
2017-10-22 21:30:00+00:00,245.4264,10.14,13.05,47.84626,-54.09684
2017-10-22 21:40:00+00:00,250.0848,10.1,13.05,47.84626,-54.09684
2017-10-22 21:50:00+00:00,255.0364,10.1,13.05,47.84626,-54.09684
2017-10-22 22:00:00+00:00,261.2581,10.1,12.97,47.84626,-54.09684
2017-10-22 22:10:00+00:00,268.5381,10.1,12.97,47.84626,-54.09684
2017-10-22 22:20:00+00:00,274.0414,10.1,12.97,47.84626,-54.09684
2017-10-22 22:30:00+00:00,278.1281,10.09,12.97,47.84626,-54.09684
2017-10-22 22:40:00+00:00,282.673,10.0,13.05,47.84626,-54.09684
2017-10-22 22:50:00+00:00,290.5763,10.0,13.05,47.84626,-54.09684
2017-10-22 23:00:00+00:00,295.6863,10.04,12.97,47.84626,-54.09684
2017-10-22 23:10:00+00:00,298.7396,10.08,12.89,47.84626,-54.09684
2017-10-22 23:20:00+00:00,304.9864,10.06,12.97,47.84626,-54.09684
2017-10-22 23:30:00+00:00,313.828,10.01,12.97,47.84626,-54.09684
2017-10-22 23:40:00+00:00,319.1114,10.02,12.97,47.84626,-54.09684
2017-10-22 23:50:00+00:00,323.2679,10.01,12.97,47.84626,-54.09684
